軌道要素
Epoch 2012 July 12.0 TT = JDT 2456120.5
T 2012 June 25.09788 TT MPC
q 1.6608296 (2000.0) P Q
n 0.14447249 Peri. 183.04647 +0.55304614 +0.75301274
a 3.5970456 Node 120.81349 -0.75535683 +0.63373441
e 0.5382795 Incl. 24.52731 -0.35153382 -0.17706640
P 6.82
From 75 observations 2012 May 20-Sept. 6, mean residual 0".4.
|